Regional Weather Roundup
Issued by NWS

Home | Current Version | Previous Version | Text Only | Print | Product List | Glossary On
Versions: 1 2 3 4 5 6 7 8 9 10 11 12 13 14 15 16 17 18 19 20 21 22 23 24 25 26 27 28 29 30 31 32 33 34 35 36 37 38 39 40 41 42 43 44 45 46 47 48 49 50
000
ASUS43 KLOT 271308
RWRIL

ILLINOIS REGIONAL WEATHER ROUNDUP
NATIONAL WEATHER SERVICE CHICAGO/ROMEOVILLE IL
800 AM CDT MON APR 27 2015

NOTE: "FAIR" INDICATES FEW OR NO CLOUDS BELOW 12,000 FEET WITH NO
SIGNIFICANT WEATHER AND/OR OBSTRUCTIONS TO VISIBILITY.

* THESE STATIONS ARE NOT UNDER NWS QUALITY CONTROL. THEY ALSO MAY NOT
  REPORT WEATHER SUCH AS PRECIPITATION OR FOG.

ILZ001-002-007-009-015-016-024-271400-
NORTHWEST ILLINOIS

CITY           SKY/WX    TMP DP  RH WIND       PRES   REMARKS
MOLINE         SUNNY     43  33  68 E6        30.15R
STERLING*      SUNNY     45  34  65 N5        30.17R
SAVANNA*       SUNNY     44  31  59 CALM      30.17R
$$

ILZ003-004-008-010-011-017-018-271400-
NORTH CENTRAL ILLINOIS

CITY           SKY/WX    TMP DP  RH WIND       PRES   REMARKS
ROCKFORD       SUNNY     45  32  60 N6        30.17R
FREEPORT*      SUNNY     39  32  75 W3        30.17R
ROCHELLE*      SUNNY     42  34  71 N5        30.15R
DE KALB*       SUNNY     40  31  70 NW8       30.14R
PERU*          SUNNY     43  34  71 N7        30.15R
$$

ILZ005-006-012>014-019>023-271400-
NORTHEAST ILLINOIS

CITY           SKY/WX    TMP DP  RH WIND       PRES   REMARKS
CHICAGO-OHARE  SUNNY     44  31  60 N9        30.10R
CHICAGO-MIDWAY SUNNY     47  33  58 N12       30.11R
AURORA         SUNNY     43  32  65 N10       30.13R
LANSING*       SUNNY     44  32  61 N10G17    30.11R
JOLIET*        SUNNY     44  35  68 NW7       30.13R
WAUKEGAN       SUNNY     44  32  62 NW6       30.10R
DUPAGE AIRPORT SUNNY     45  33  63 N9        30.11R
KANKAKEE*      SUNNY     43  34  70 NW8       30.12R
WHEELING       SUNNY     45  31  58 N7        30.12R
MORRIS*        SUNNY     42  34  72 NW8       30.10R
ROMEOVILLE*    SUNNY     43  32  64 N6        30.12R
NORTHERLY ISL    N/A     44  33  65 N15         N/A
$$

LMZ740>746-271400-
SOUTHERN LAKE MICHIGAN

STATION/POSITION SKY/WX   TEMP    WIND        PRES    VSBY  WAVE
                          AIR SEA DIR/SP/G                  HT/PER
                          (F)     (DEG/KT/KT) (MB)    (MI)  (FT/S)
HARRISON CRIB              41     350/ 17/ 21   N/A
BURNHAM HARBOR             44     330/  9/ 18   N/A
CALUMET HARBOR             43     340/ 12/ 16   N/A
BURNS HARBOR               41     350/ 15/ 23 1018.6R
MICHIGAN CITY              40     340/ 22/ 24   N/A
MICHIGAN CITY 6N           41 45  360/ 16/ 21   N/A           5/ 5
$$

ILZ025>027-034>036-040-047-049-050-058-095>099-271400-
WEST-CENTRAL ILLINOIS

CITY           SKY/WX    TMP DP  RH WIND       PRES   REMARKS
QUINCY         SUNNY     47  39  74 NE10      30.11R
GALESBURG*     SUNNY     46  33  62 E10       30.13R
MACOMB*        SUNNY     43  37  79 E5        30.14S
JACKSONVILLE*  SUNNY     48  37  66 N6        30.11S
PITTSFIELD*    SUNNY     46  38  75 N6        30.11F
$$

ILZ028>032-037-038-041>044-048-051>054-059>061-271400-
CENTRAL ILLINOIS

CITY           SKY/WX    TMP DP  RH WIND       PRES   REMARKS
PONTIAC        SUNNY     44  36  73 N13       30.13S
BLOOMINGTON    SUNNY     42  34  73 N12       30.13R
DECATUR        SUNNY     44  34  67 N10       30.10R
PEORIA         SUNNY     47  34  60 NE9       30.13R
LACON*         SUNNY     43  32  67 N6        30.13S
LINCOLN*       SUNNY     46  35  65 N12       30.12R
SPRINGFIELD    SUNNY     47  34  60 NE10      30.11S
TAYLORVILLE    SUNNY     45  32  61 N12       30.10S
$$

ILZ033-039-045-046-055>057-062-063-271400-
EAST-CENTRAL ILLINOIS

CITY           SKY/WX    TMP DP  RH WIND       PRES   REMARKS
CHAMPAIGN      SUNNY     45  34  65 N17       30.09R
DANVILLE*      SUNNY     42  35  75 N12       30.06R
RANTOUL*       SUNNY     45  35  67 N9        30.10R
MATTOON          N/A     43  33  68 MISG      30.07R
PARIS*         SUNNY     44  36  74 N9        30.08R
$$

ILZ079-100>102-271400-
SOUTHWEST ILLINOIS

CITY           SKY/WX    TMP DP  RH WIND       PRES   REMARKS
BELLEVILLE     CLOUDY    46  33  60 N8        30.06R
CAHOKIA*       CLOUDY    46  35  65 NE7       30.08R
SPARTA*        CLOUDY    43  35  72 NW3       30.07R
$$

ILZ064>066-069>071-074>076-080>082-084>086-088>090-092>094-271400-
SOUTH-CENTRAL ILLINOIS

CITY           SKY/WX    TMP DP  RH WIND       PRES   REMARKS
CARBONDALE     CLOUDY    45  35  68 N5        30.06R
CAIRO*         MOSUNNY   47  35  63 NE6       30.05R
EFFINGHAM*     SUNNY     46  31  56 N10G17    30.08S
MARION         PTSUNNY   46  36  66 N6        30.06R
MT. VERNON     PTSUNNY   45  30  57 N8G16     30.05R
CENTRALIA*     PTSUNNY   47  32  56 N8        30.05R
SALEM*         PTSUNNY   48  33  57 N12G20    30.05S
METROPOLIS*    PTSUNNY   47  37  67 N8        30.04R
$$

ILZ067-068-072-073-078-083-087-091-271400-
SOUTHEAST ILLINOIS

CITY           SKY/WX    TMP DP  RH WIND       PRES   REMARKS
LAWRENCEVILLE  SUNNY     46  33  60 N15       30.04F
FLORA*         SUNNY     45  33  62 N13G20    30.05S
FAIRFIELD*     PTSUNNY   46  33  61 N13G18    30.03R
HARRISBURG*    PTSUNNY   45  33  63 N6        30.05R
ROBINSON*      SUNNY     44  34  69 N13       30.06F
CARMI*         PTSUNNY   46  32  58 N7        30.02S
$$

ABBREVIATIONS USED IN REMARKS
   TC - TEMPERATURE IN CELSIUS
  WCI - WIND CHILL INDEX
   HX - HEAT INDEX
  VSB - VISIBILITY
$$



USA.gov is the U.S. government's official web portal to all federal, state and local government web resources and services.